Simultaneous Nadir Overpasses (SNOs) Predictions

Prediction of SNOs between METOP-B and TERRA Satellite Orbit:

Table of predicted SNOs for the next 14.0 days since TLE Epoch: 11/12/2022
Index Date (METOP-B) Time (METOP-B) Lat,Lon (METOP-B) SZA (METOP-B ) Date (TERRA) Time (TERRA) Lat,Lon (TERRA) SZA (TERRA ) Distance(km) Time Diff (sec)
1 11/14/2022 07:31:25 -81.02, -75.58 78.64 11/14/2022 07:31:27 -81.02, -75.56 78.64 0.46 2
2 11/16/2022 23:43:03 -81.04, 41.84 77.94 11/16/2022 23:43:10 -81.04, 41.72 77.95 2.12 7
3 11/17/2022 00:33:42 81.06,-150.31 102.14 11/17/2022 00:32:31 81.06,-150.30 102.12 0.45 71
4 11/19/2022 15:54:43 -81.02, 158.46 77.38 11/19/2022 15:54:54 -81.01, 158.47 77.38 0.18 11
5 11/19/2022 16:45:22 81.04, -33.70 102.70 11/19/2022 16:44:15 81.04, -33.59 102.68 1.89 67
6 11/22/2022 08:06:21 -81.01, -84.61 76.83 11/22/2022 08:06:36 -81.01, -84.61 76.83 0.44 15
7 11/22/2022 08:56:59 81.05, 83.60 103.30 11/22/2022 08:55:56 81.05, 83.67 103.28 1.47 63
8 11/25/2022 00:17:59 -81.02, 32.63 76.28 11/25/2022 00:18:18 -81.01, 32.50 76.29 2.33 19



Historial Predications of SNOs between METOP-B and TERRA
